Total_Precipitation_Accumulation
2.24 2.37 2.23 2.02 2.01 2.05 2.39 2.70 2.88 2.57 2.28 2.07 1.87 1.58 1.59 1.50 1.49 1.34 1.32 1.20 1.00 0.96 0.94 0.90 0.95 1.07 1.19 1.30 1.40 1.53 1.63 1.70 1.87 2.08 2.25 2.41 2.50 2.56
2.35 2.47 2.45 2.27 2.22 2.19 2.40 2.66 2.85 2.90 2.46 2.11 2.05 1.76 1.62 1.37 1.43 1.27 1.22 1.23 1.02 0.91 0.93 0.87 0.87 0.91 0.96 1.04 1.10 1.15 1.24 1.33 1.40 1.52 1.66 1.79 1.90 2.03
2.03 2.19 2.31 2.40 2.37 2.37 2.49 2.59 2.78 2.97 2.58 2.34 2.42 2.23 1.97 1.72 1.54 1.40 1.24 1.18 1.05 0.97 0.87 0.85 0.85 0.87 0.92 0.97 0.99 1.03 1.09 1.14 1.21 1.29 1.39 1.47 1.49 1.58
2.07 2.16 2.07 2.14 2.17 2.22 2.36 2.52 2.72 2.93 2.79 2.69 2.77 2.69 2.44 2.08 1.89 1.73 1.38 1.19 1.11 1.10 0.95 0.83 0.85 0.87 0.89 0.95 0.99 0.98 0.98 0.98 1.02 1.08 1.17 1.29 1.39 1.44
1.91 1.91 1.80 1.88 1.90 2.06 2.13 2.27 2.47 2.70 2.76 2.72 2.82 2.81 2.61 2.38 2.28 1.92 1.64 1.58 1.28 1.24 1.13 0.95 0.86 0.86 0.91 0.93 0.93 0.94 0.93 0.93 0.94 0.98 1.06 1.13 1.24 1.35
1.64 1.59 1.53 1.60 1.70 1.90 1.97 2.04 2.17 2.37 2.49 2.56 2.74 2.78 2.68 2.59 2.53 2.18 1.96 1.85 1.61 1.34 1.27 1.06 0.96 0.88 0.86 0.84 0.86 0.91 0.98 0.99 1.00 1.03 1.07 1.11 1.14 1.17
1.50 1.34 1.22 1.30 1.39 1.52 1.48 1.70 1.90 2.09 2.20 2.35 2.55 2.76 2.62 2.59 2.44 2.30 2.11 2.04 1.90 1.62 1.55 1.27 1.10 0.95 0.81 0.77 0.79 0.87 1.02 1.13 1.15 1.17 1.20 1.22 1.26 1.29
1.43 1.28 1.16 1.15 1.20 1.25 1.27 1.34 1.51 1.72 1.91 2.17 2.37 2.54 2.42 2.36 2.46 2.45 2.36 2.16 2.05 1.89 1.98 1.84 1.57 1.42 1.15 0.88 0.84 0.88 1.01 1.21 1.32 1.33 1.36 1.39 1.43 1.47
1.43 1.42 1.18 0.98 1.11 1.08 1.15 1.14 1.21 1.32 1.50 1.79 1.99 2.09 2.25 2.24 2.47 2.55 2.65 2.53 2.38 2.25 2.40 2.39 2.23 2.04 1.43 1.21 1.15 0.97 0.95 1.02 1.17 1.28 1.32 1.42 1.48 1.53
1.33 1.29 1.28 1.22 1.12 1.09 1.13 1.15 1.05 1.07 1.18 1.22 1.40 1.71 2.20 2.47 2.48 2.53 2.76 2.74 2.53 2.43 2.52 2.64 2.43 2.34 1.86 1.42 1.20 0.93 0.84 0.86 0.95 1.08 1.20 1.31 1.46 1.59
1.31 1.26 1.21 1.22 1.20 1.04 1.07 1.10 1.05 1.01 1.05 1.17 1.28 1.49 1.74 2.06 2.25 2.31 2.40 2.56 2.61 2.56 2.56 2.70 2.63 2.52 2.49 2.17 1.58 1.20 0.93 0.84 0.87 0.95 1.03 1.12 1.25 1.40
1.24 1.17 1.05 0.97 1.00 0.94 1.02 1.10 1.03 1.01 1.06 1.09 1.11 1.20 1.35 1.53 1.62 1.59 1.70 1.89 2.06 2.22 2.17 2.40 2.67 2.76 2.95 2.88 2.35 1.74 1.33 1.11 0.97 0.92 0.97 1.03 1.14 1.09
1.11 1.04 0.99 0.91 0.86 0.85 0.89 0.97 1.03 1.09 1.13 1.14 1.19 1.19 1.35 1.51 1.57 1.55 1.64 1.74 1.78 1.77 1.73 1.88 2.16 2.38 2.63 2.81 2.66 2.21 1.82 1.56 1.30 1.12 1.06 1.09 1.14 1.11
1.18 1.15 1.12 1.00 0.88 0.83 0.78 0.83 0.93 0.94 1.03 1.14 1.20 1.22 1.30 1.46 1.58 1.67 1.75 1.80 1.78 1.71 1.65 1.75 1.89 1.90 1.87 1.94 2.06 1.96 1.80 1.70 1.67 1.57 1.40 1.38 1.31 1.32
1.17 1.20 1.10 1.00 0.94 0.91 0.91 0.96 0.98 0.98 1.11 1.23 1.24 1.24 1.30 1.40 1.54 1.66 1.72 1.78 1.82 1.73 1.59 1.52 1.55 1.68 1.80 1.67 1.53 1.50 1.53 1.56 1.70 1.88 1.90 1.77 1.61 1.55
1.25 1.26 1.15 1.04 0.97 0.97 0.95 0.93 0.95 1.03 1.11 1.13 1.19 1.29 1.30 1.36 1.44 1.50 1.59 1.60 1.59 1.54 1.50 1.44 1.44 1.50 1.56 1.58 1.50 1.35 1.37 1.47 1.53 1.71 1.95 2.04 1.98 1.86
1.64 1.60 1.52 1.41 1.27 1.23 1.18 1.17 1.19 1.23 1.22 1.26 1.33 1.34 1.27 1.25 1.31 1.37 1.49 1.50 1.37 1.27 1.32 1.41 1.49 1.51 1.45 1.49 1.50 1.37 1.30 1.30 1.36 1.49 1.64 1.70 1.70 1.71
1.64 1.63 1.69 1.69 1.61 1.57 1.51 1.47 1.45 1.41 1.36 1.35 1.35 1.33 1.30 1.24 1.31 1.37 1.46 1.51 1.44 1.27 1.25 1.34 1.43 1.53 1.57 1.52 1.36 1.30 1.29 1.26 1.29 1.42 1.49 1.47 1.37 1.25
1.58 1.64 1.69 1.73 1.75 1.74 1.71 1.59 1.52 1.49 1.48 1.43 1.37 1.35 1.34 1.32 1.39 1.43 1.44 1.44 1.43 1.34 1.29 1.36 1.41 1.43 1.44 1.39 1.28 1.18 1.23 1.27 1.35 1.37 1.38 1.34 1.24 1.13
1.56 1.69 1.72 1.71 1.70 1.67 1.64 1.58 1.50 1.52 1.54 1.44 1.34 1.30 1.30 1.30 1.35 1.36 1.38 1.37 1.37 1.39 1.39 1.34 1.35 1.36 1.34 1.33 1.32 1.24 1.08 1.11 1.20 1.27 1.28 1.28 1.24 1.17
1.57 1.67 1.68 1.62 1.58 1.58 1.56 1.52 1.46 1.47 1.49 1.47 1.39 1.37 1.38 1.37 1.36 1.36 1.41 1.41 1.33 1.29 1.28 1.18 1.19 1.36 1.47 1.54 1.43 1.34 1.36 1.29 1.27 1.23 1.24 1.26 1.28 1.23
1.47 1.54 1.53 1.46 1.42 1.43 1.41 1.39 1.39 1.43 1.47 1.45 1.35 1.27 1.29 1.33 1.31 1.34 1.36 1.34 1.26 1.21 1.21 1.21 1.30 1.40 1.47 1.55 1.47 1.42 1.54 1.53 1.47 1.39 1.35 1.29 1.20 1.13
1.44 1.44 1.39 1.31 1.28 1.28 1.27 1.29 1.32 1.36 1.38 1.35 1.29 1.19 1.17 1.22 1.19 1.23 1.24 1.24 1.26 1.28 1.33 1.37 1.43 1.46 1.42 1.40 1.44 1.44 1.45 1.50 1.50 1.45 1.38 1.30 1.11 0.97